Weather History for Madisonville, KY

Change the Weather History Date:

Friday, May 17, 2013

  Actual Average (KOWB) Record (KOWB)
Temperature  
Mean Temperature 68 °F -  
Max Temperature 73 °F 77 °F 96 °F (1962)
Min Temperature 64 °F 54 °F 41 °F (1973)
Cooling Degree Days 3    
Growing Degree Days 18 (Base 50)    
Moisture  
Dew Point 65 °F    
Average Humidity 89    
Maximum Humidity 99    
Minimum Humidity 76    
Precipitation  
Precipitation 0.06 in - - ()
Sea Level Pressure  
Sea Level Pressure 30.00 in    
Wind  
Wind Speed 4 mph (SSE)    
Max Wind Speed 10 mph    
Max Gust Speed -    
Visibility 9 miles    
Events Rain    
Averages and records for this station are not official NWS values.
T = Trace of Precipitation, MM = Missing Value Source: NWS Daily Summary

Daily Weather History Graph

Daily Weather History Graph

Search for Another Location

Airport:

Trip Planner

Search our weather history database for the weather conditions in past years. The results will help you decide how hot, cold, wet, or windy it might be!

Date:

Astronomy

May. 17, 2013 Rise Set
Actual Time 5:38 AM CDT 7:53 PM CDT
Civil Twilight 5:09 AM CDT 8:22 PM CDT
Nautical Twilight 4:33 AM CDT 8:59 PM CDT
Astronomical Twilight 3:54 AM CDT 9:38 PM CDT
Moon 12:07 PM CDT (5/17) 12:49 AM CDT (5/17)
Length of Visible Light 15h 13m
Length of Day
14h 14m
Waxing Crescent, 45% of the Moon is Illuminated
May 17
Waxing Crescent
May 17
First Quarter
May 24
Full
May 31
Last Quarter
Jun 8
New

Hourly Weather History & Observations

Time (CDT) Temp. Dew Point Humidity Pressure Visibility Wind Dir Wind Speed Gust Speed Precip Events Conditions
12:15 AM 68.9 °F 65.1 °F 88% 29.98 in 10.0 mi Calm Calm - N/A   Mostly Cloudy
12:35 AM 70.0 °F 64.2 °F 82% 29.98 in 10.0 mi SSW 4.6 mph - N/A   Scattered Clouds
12:55 AM 70.0 °F 63.7 °F 80% 29.98 in 10.0 mi SW 4.6 mph - N/A   Mostly Cloudy
1:15 AM 69.1 °F 63.5 °F 82% 29.98 in 10.0 mi SSW 4.6 mph - N/A   Scattered Clouds
1:35 AM 69.1 °F 63.3 °F 82% 29.98 in 10.0 mi SW 5.8 mph - N/A   Mostly Cloudy
1:55 AM 69.1 °F 63.1 °F 81% 29.99 in 10.0 mi SW 4.6 mph - N/A   Overcast
2:15 AM 68.2 °F 62.8 °F 83% 29.99 in 10.0 mi SSW 4.6 mph - N/A   Scattered Clouds
2:35 AM 68.0 °F 62.6 °F 83% 29.98 in 10.0 mi SSW 3.5 mph - N/A   Scattered Clouds
2:55 AM 67.3 °F 62.6 °F 85% 29.98 in 10.0 mi SSW 4.6 mph - N/A   Scattered Clouds
3:15 AM 67.1 °F 62.8 °F 86% 29.98 in 10.0 mi SW 5.8 mph - N/A   Mostly Cloudy
3:35 AM 66.9 °F 62.6 °F 86% 29.98 in 10.0 mi Calm Calm - N/A   Mostly Cloudy
3:55 AM 65.5 °F 63.3 °F 93% 29.98 in 10.0 mi Calm Calm - N/A   Overcast
4:15 AM 66.4 °F 63.0 °F 89% 29.98 in 10.0 mi Calm Calm - N/A   Mostly Cloudy
4:35 AM 65.5 °F 63.5 °F 93% 29.99 in 10.0 mi Calm Calm - N/A   Overcast
4:55 AM 64.8 °F 63.5 °F 96% 29.99 in 10.0 mi Calm Calm - N/A   Overcast
5:15 AM 65.3 °F 63.5 °F 94% 29.99 in 10.0 mi Calm Calm - N/A   Mostly Cloudy
5:35 AM 65.5 °F 63.5 °F 93% 30.00 in 10.0 mi Calm Calm - N/A   Scattered Clouds
5:55 AM 66.4 °F 63.0 °F 89% 30.00 in 10.0 mi SSE 3.5 mph - N/A   Mostly Cloudy
6:15 AM 66.4 °F 63.3 °F 90% 30.00 in 10.0 mi Calm Calm - N/A   Mostly Cloudy
6:35 AM 67.5 °F 62.1 °F 83% 30.01 in 10.0 mi South 3.5 mph - N/A   Scattered Clouds
7:15 AM 68.0 °F 62.6 °F 83% 30.01 in 10.0 mi SSW 5.8 mph - N/A   Mostly Cloudy
7:35 AM 68.4 °F 62.1 °F 80% 30.01 in 10.0 mi SSW 6.9 mph - N/A   Mostly Cloudy
7:55 AM 68.4 °F 61.9 °F 80% 30.02 in 10.0 mi South 5.8 mph - N/A   Overcast
8:15 AM 68.0 °F 63.1 °F 84% 30.02 in 10.0 mi South 4.6 mph - N/A   Drizzle
8:35 AM 68.0 °F 63.5 °F 85% 30.02 in 10.0 mi South 6.9 mph - N/A   Mostly Cloudy
8:55 AM 68.2 °F 63.5 °F 85% 30.02 in 10.0 mi South 5.8 mph - N/A   Light Drizzle
9:15 AM 68.4 °F 63.9 °F 85% 30.02 in 10.0 mi SSE 4.6 mph - N/A   Overcast
9:35 AM 68.4 °F 64.4 °F 87% 30.03 in 10.0 mi South 5.8 mph - N/A   Light Drizzle
9:55 AM 68.5 °F 64.2 °F 86% 30.04 in 10.0 mi SE 5.8 mph - N/A   Light Drizzle
10:15 AM 69.1 °F 65.1 °F 87% 30.04 in 10.0 mi SSE 5.8 mph - N/A Rain Light Rain
10:35 AM 69.3 °F 65.3 °F 87% 30.04 in 10.0 mi SSE 3.5 mph - N/A   Overcast
10:55 AM 69.4 °F 65.7 °F 88% 30.04 in 10.0 mi South 5.8 mph - N/A   Light Drizzle
11:15 AM 69.4 °F 66.2 °F 89% 30.04 in 10.0 mi ESE 5.8 mph - N/A   Light Drizzle
11:35 AM 70.2 °F 66.6 °F 88% 30.04 in 10.0 mi SE 6.9 mph - N/A   Overcast
11:55 AM 69.8 °F 65.8 °F 87% 30.04 in 10.0 mi East 9.2 mph - N/A   Light Drizzle
12:15 PM 69.8 °F 65.8 °F 87% 30.04 in 10.0 mi East 4.6 mph - N/A   Light Drizzle
12:35 PM 70.2 °F 66.6 °F 88% 30.04 in 10.0 mi NNE 6.9 mph - N/A   Drizzle
12:55 PM 69.8 °F 67.3 °F 92% 30.04 in 10.0 mi SSE 6.9 mph - N/A Rain Light Rain
1:15 PM 69.8 °F 66.7 °F 90% 30.04 in 10.0 mi South 10.4 mph - N/A Rain Rain
1:35 PM 69.3 °F 66.7 °F 92% 30.03 in 10.0 mi South 9.2 mph - N/A Rain Rain
2:15 PM 68.9 °F 67.1 °F 94% 30.02 in 5.0 mi ESE 3.5 mph - N/A Rain Light Rain
2:35 PM 69.1 °F 67.5 °F 95% 30.01 in 7.0 mi SE 9.2 mph - 0.01 in Rain Light Rain
2:55 PM 69.6 °F 67.8 °F 94% 30.01 in 7.0 mi SE 5.8 mph - 0.02 in Rain Light Rain
3:15 PM 70.5 °F 67.8 °F 91% 30.00 in 10.0 mi ESE 9.2 mph - N/A   Scattered Clouds
3:35 PM 71.1 °F 67.8 °F 89% 30.00 in 10.0 mi ESE 5.8 mph - N/A   Scattered Clouds
3:55 PM 72.3 °F 68.7 °F 88% 29.99 in 10.0 mi ESE 4.6 mph - N/A   Mostly Cloudy
4:15 PM 72.1 °F 65.8 °F 80% 29.98 in 10.0 mi SE 4.6 mph - N/A   Overcast
4:35 PM 72.3 °F 66.2 °F 81% 29.98 in 10.0 mi SSE 3.5 mph - N/A   Overcast
4:55 PM 72.9 °F 64.8 °F 76% 29.99 in 10.0 mi SSE 6.9 mph - N/A   Overcast
5:15 PM 72.7 °F 64.9 °F 77% 29.98 in 10.0 mi SE 4.6 mph - N/A   Overcast
5:35 PM 72.1 °F 65.8 °F 80% 29.98 in 10.0 mi SE 5.8 mph - N/A   Overcast
5:55 PM 72.1 °F 66.2 °F 82% 29.98 in 10.0 mi SE 4.6 mph - N/A   Overcast
6:15 PM 69.3 °F 66.7 °F 92% 29.98 in 4.0 mi SSE 5.8 mph - 0.03 in Rain Rain
6:35 PM 68.2 °F 67.3 °F 97% 29.98 in 5.0 mi Calm Calm - 0.03 in   Light Drizzle
6:55 PM 68.4 °F 67.8 °F 98% 29.98 in 7.0 mi Calm Calm - 0.03 in   Overcast
7:15 PM 68.7 °F 67.8 °F 97% 29.98 in 10.0 mi East 3.5 mph - N/A   Overcast
7:35 PM 68.9 °F 67.6 °F 96% 29.98 in 10.0 mi ESE 4.6 mph - N/A   Overcast
7:55 PM 68.5 °F 66.9 °F 95% 29.98 in 10.0 mi ESE 3.5 mph - N/A   Overcast
8:15 PM 68.2 °F 66.4 °F 94% 29.98 in 10.0 mi ESE 3.5 mph - N/A   Overcast
8:35 PM 68.2 °F 66.4 °F 94% 29.98 in 10.0 mi Calm Calm - N/A   Overcast
8:55 PM 68.0 °F 66.6 °F 95% 29.98 in 10.0 mi East 5.8 mph - N/A   Overcast
9:15 PM 68.2 °F 66.6 °F 95% 29.99 in 10.0 mi East 3.5 mph - N/A   Overcast
9:35 PM 68.0 °F 66.6 °F 95% 29.99 in 10.0 mi East 3.5 mph - N/A   Overcast
9:55 PM 68.0 °F 66.6 °F 95% 30.00 in 10.0 mi East 5.8 mph - N/A   Overcast
10:15 PM 67.6 °F 66.7 °F 97% 30.00 in 7.0 mi East 8.1 mph - N/A   Overcast
10:35 PM 67.6 °F 67.1 °F 98% 30.00 in 7.0 mi East 8.1 mph - N/A Rain Light Rain
10:55 PM 67.5 °F 67.1 °F 99% 30.00 in 5.0 mi East 5.8 mph - 0.01 in   Drizzle
11:35 PM 67.6 °F 67.3 °F 99% 29.99 in 7.0 mi Calm Calm - N/A   Overcast
11:55 PM 67.6 °F 67.3 °F 99% 29.99 in 7.0 mi ESE 4.6 mph - N/A   Overcast